Starlink 32236

operational
NORAD ID: 60418 Int'l Des: 2024-141 Owner: SPXS Country: US Constellation: starlink
LEOCIRCULAR

Starlink 32236について

説明を読み込み中...

リアルタイム位置

3D地球を読み込み中...

次回通過

高度履歴

Altitude vs Time

uPlot chart will show altitude changes over time

軌道要素

1 60418U 24141W 25258.92304475 .00001409 00000-0 59676-4 0 9998
2 60418 53.1609 334.3176 0001044 101.6895 258.4223 15.30195106 62826
Epoch: Sep 15, 2025 • Age: 18 hours

現在のステータス

高度 492.0 km
速度 7.62 km/s
衛星直下点 -47.40°S, 38.01°W
打ち上げ日 Aug 10, 2024
運用期間 1.1 years
タイプ internet

技術仕様

分類 Payload
質量 730.00 kg
乾燥質量 700.00 kg
総質量 730.00 kg
長さ 0.30 m
直径 4.10 m
スパン 29.00 m
形状 Box + pan
製造者 SPXS
バスタイプ Starlink V2M
フェーズステータス In Orbit
所有者/国 SPXS/US

大規模コンステレーション

Loading constellations...